Location: Austin
(30.3000°N, 97.7500°W)
Time: 04:11:26
(UTC-05:00)

Cosmos 1603 - Pass Details

Date: 01 October 2024
Orbit: 832 x 857 km, 71.0° (Epoch: 06 October)

Event Time Altitude Azimuth Distance (km) Brightness Sun altitude
Rises 19:50:29 0° 204° (SSW) 3,394 7.2 -8.4°
Reaches altitude 10° 19:52:56 10° 207° (SSW) 2,458 6.5 -8.9°
Maximum altitude 19:58:34 70° 290° (WNW) 893 4.1 -10.1°
Drops below altitude 10° 20:04:10 10° 14° (NNE) 2,454 6.0 -11.3°
Sets 20:06:38 0° 17° (NNE) 3,387 6.7 -11.9°
